Wetterdaten: aktuell Sonntag, 03.07.2022 23:35
Datum Zeit Temp. A. Feuchte A. Luftdruck Regen Wind Richtung Richtung Windben
03.07.2022 23:35 20,9 C 77 % 1017,9 hPa 0,0 l/m 5,2 km/h N 7 8,0 km/h
03.07.2022 23:30 20,9 C 77 % 1017,9 hPa 0,0 l/m 6,6 km/h N 354 9,7 km/h
03.07.2022 23:25 21,0 C 76 % 1017,9 hPa 0,0 l/m 7,9 km/h N-NW 343 9,7 km/h
03.07.2022 23:20 21,2 C 76 % 1017,8 hPa 0,0 l/m 5,1 km/h N 349 8,0 km/h
03.07.2022 23:15 21,2 C 76 % 1017,9 hPa 0,0 l/m 5,5 km/h N 3 8,0 km/h
03.07.2022 23:10 21,0 C 77 % 1018,0 hPa 0,0 l/m 6,7 km/h N 352 9,7 km/h
03.07.2022 23:05 21,1 C 77 % 1018,1 hPa 0,0 l/m 7,9 km/h N 349 12,9 km/h
03.07.2022 23:00 21,1 C 77 % 1018,1 hPa 0,0 l/m 8,4 km/h N 356 12,9 km/h
03.07.2022 22:55 21,1 C 77 % 1017,9 hPa 0,0 l/m 9,1 km/h N 355 12,9 km/h
03.07.2022 22:50 21,2 C 77 % 1017,9 hPa 0,0 l/m 7,8 km/h N 359 9,7 km/h
03.07.2022 22:45 21,1 C 77 % 1017,8 hPa 0,0 l/m 8,7 km/h N 1 12,9 km/h
03.07.2022 22:40 21,1 C 77 % 1017,8 hPa 0,0 l/m 9,2 km/h N 2 12,9 km/h
03.07.2022 22:35 21,2 C 77 % 1017,8 hPa 0,0 l/m 8,9 km/h N-NW 345 12,9 km/h
03.07.2022 22:30 21,3 C 77 % 1017,8 hPa 0,0 l/m 8,8 km/h N 359 12,9 km/h
03.07.2022 22:25 21,4 C 77 % 1017,8 hPa 0,0 l/m 9,6 km/h N 360 14,5 km/h
03.07.2022 22:20 21,4 C 77 % 1017,8 hPa 0,0 l/m 9,0 km/h N 349 12,9 km/h
03.07.2022 22:15 21,3 C 77 % 1017,9 hPa 0,0 l/m 7,6 km/h N-NW 345 9,7 km/h
03.07.2022 22:10 21,6 C 77 % 1017,8 hPa 0,0 l/m 9,1 km/h N 359 12,9 km/h
03.07.2022 22:05 21,7 C 76 % 1017,7 hPa 0,0 l/m 8,9 km/h N 354 12,9 km/h
03.07.2022 22:00 21,7 C 77 % 1017,8 hPa 0,0 l/m 9,0 km/h N-NW 342 12,9 km/h
03.07.2022 21:55 21,7 C 77 % 1017,8 hPa 0,0 l/m 9,6 km/h N 7 12,9 km/h
03.07.2022 21:50 21,8 C 77 % 1017,9 hPa 0,0 l/m 9,7 km/h N 356 12,9 km/h
03.07.2022 21:45 21,8 C 77 % 1017,8 hPa 0,0 l/m 8,6 km/h N 2 12,9 km/h
03.07.2022 21:40 21,9 C 76 % 1017,8 hPa 0,0 l/m 8,7 km/h N 356 12,9 km/h
03.07.2022 21:35 22,0 C 76 % 1017,7 hPa 0,0 l/m 9,2 km/h N 356 12,9 km/h
03.07.2022 21:30 22,0 C 76 % 1017,6 hPa 0,0 l/m 8,7 km/h N 358 12,9 km/h
03.07.2022 21:25 22,1 C 76 % 1017,5 hPa 0,0 l/m 9,2 km/h N 350 12,9 km/h
03.07.2022 21:20 22,2 C 76 % 1017,4 hPa 0,0 l/m 8,5 km/h N 352 9,7 km/h
03.07.2022 21:15 22,4 C 75 % 1017,3 hPa 0,0 l/m 8,3 km/h N 358 9,7 km/h
03.07.2022 21:10 22,6 C 75 % 1017,3 hPa 0,0 l/m 8,1 km/h N 360 9,7 km/h
03.07.2022 21:05 22,7 C 75 % 1017,1 hPa 0,0 l/m 8,0 km/h N 358 9,7 km/h
03.07.2022 21:00 22,8 C 74 % 1017,1 hPa 0,0 l/m 8,2 km/h N 354 9,7 km/h
03.07.2022 20:55 23,2 C 74 % 1017,0 hPa 0,0 l/m 7,9 km/h N 360 9,7 km/h
03.07.2022 20:50 23,4 C 73 % 1017,0 hPa 0,0 l/m 7,0 km/h N-NW 348 8,0 km/h
03.07.2022 20:45 23,7 C 72 % 1017,1 hPa 0,0 l/m 6,3 km/h N 358 9,7 km/h
03.07.2022 20:40 24,1 C 70 % 1017,0 hPa 0,0 l/m 6,3 km/h N-NW 335 8,0 km/h
03.07.2022 20:35 24,3 C 69 % 1017,0 hPa 0,0 l/m 6,2 km/h N 352 8,0 km/h
03.07.2022 20:30 24,5 C 69 % 1017,0 hPa 0,0 l/m 5,4 km/h N 360 8,0 km/h
03.07.2022 20:25 24,7 C 69 % 1017,0 hPa 0,0 l/m 6,3 km/h N 350 8,0 km/h
03.07.2022 20:20 25,0 C 67 % 1017,0 hPa 0,0 l/m 6,5 km/h N-NW 338 8,0 km/h
03.07.2022 20:15 25,5 C 66 % 1017,0 hPa 0,0 l/m 4,8 km/h N 354 8,0 km/h
03.07.2022 20:10 25,8 C 64 % 1017,0 hPa 0,0 l/m 2,1 km/h N 350 8,0 km/h
03.07.2022 20:05 26,2 C 63 % 1016,9 hPa 0,0 l/m 0,0 km/h N 353 0,0 km/h
03.07.2022 20:00 26,6 C 61 % 1016,9 hPa 0,0 l/m 0,0 km/h NW 325 0,0 km/h
03.07.2022 19:55 26,8 C 60 % 1017,0 hPa 0,0 l/m 0,0 km/h S 178 0,0 km/h
03.07.2022 19:50 27,1 C 59 % 1017,0 hPa 0,0 l/m 0,0 km/h S 178 0,0 km/h
03.07.2022 19:45 27,3 C 59 % 1017,0 hPa 0,0 l/m 0,0 km/h S 178 0,0 km/h
03.07.2022 19:40 27,6 C 58 % 1017,0 hPa 0,0 l/m 0,0 km/h S 178 0,0 km/h
03.07.2022 19:35 27,9 C 57 % 1016,9 hPa 0,0 l/m 0,0 km/h S 178 0,0 km/h
03.07.2022 19:30 28,2 C 56 % 1016,9 hPa 0,0 l/m 1,3 km/h SW 227 3,2 km/h
03.07.2022 19:25 28,6 C 54 % 1016,8 hPa 0,0 l/m 2,9 km/h SW 227 4,8 km/h
03.07.2022 19:20 29,0 C 53 % 1016,8 hPa 0,0 l/m 1,6 km/h S-SW 200 6,4 km/h
03.07.2022 19:15 29,4 C 53 % 1016,8 hPa 0,0 l/m 1,4 km/h S 181 6,4 km/h
03.07.2022 19:10 29,4 C 52 % 1016,8 hPa 0,0 l/m 0,3 km/h S-SW 194 3,2 km/h
03.07.2022 19:05 29,4 C 50 % 1016,8 hPa 0,0 l/m 1,5 km/h S 188 4,8 km/h
03.07.2022 19:00 29,6 C 50 % 1016,8 hPa 0,0 l/m 2,4 km/h SW 214 4,8 km/h
03.07.2022 18:55 29,8 C 51 % 1016,7 hPa 0,0 l/m 1,6 km/h SW 217 6,4 km/h
03.07.2022 18:50 29,8 C 53 % 1016,7 hPa 0,0 l/m 0,0 km/h S-SW 206 0,0 km/h
03.07.2022 18:45 29,8 C 50 % 1016,7 hPa 0,0 l/m 0,0 km/h S-SW 206 0,0 km/h
03.07.2022 18:40 29,9 C 49 % 1016,6 hPa 0,0 l/m 0,0 km/h S-SW 194 0,0 km/h
03.07.2022 18:35 30,0 C 48 % 1016,6 hPa 0,0 l/m 1,7 km/h S-SW 207 8,0 km/h
03.07.2022 18:30 30,1 C 48 % 1016,6 hPa 0,0 l/m 3,4 km/h S-SW 194 6,4 km/h
03.07.2022 18:25 30,3 C 50 % 1016,6 hPa 0,0 l/m 0,3 km/h S 185 6,4 km/h
03.07.2022 18:20 30,2 C 48 % 1016,6 hPa 0,0 l/m 0,2 km/h SW 214 3,2 km/h
03.07.2022 18:15 30,2 C 48 % 1016,6 hPa 0,0 l/m 0,7 km/h SW 214 8,0 km/h
03.07.2022 18:10 30,2 C 49 % 1016,5 hPa 0,0 l/m 0,0 km/h S-SW 205 1,6 km/h
03.07.2022 18:05 30,3 C 47 % 1016,5 hPa 0,0 l/m 0,0 km/h S 182 0,0 km/h
03.07.2022 18:00 30,4 C 47 % 1016,5 hPa 0,0 l/m 0,4 km/h S-SW 201 6,4 km/h
03.07.2022 17:55 30,6 C 46 % 1016,6 hPa 0,0 l/m 0,9 km/h S-SO 162 6,4 km/h
03.07.2022 17:50 30,7 C 47 % 1016,6 hPa 0,0 l/m 2,0 km/h SW 216 6,4 km/h
03.07.2022 17:45 30,8 C 46 % 1016,5 hPa 0,0 l/m 0,1 km/h S 187 4,8 km/h
03.07.2022 17:40 30,8 C 48 % 1016,6 hPa 0,0 l/m 1,8 km/h S-SW 203 6,4 km/h
03.07.2022 17:35 30,7 C 47 % 1016,6 hPa 0,0 l/m 0,9 km/h S 179 6,4 km/h
03.07.2022 17:30 30,9 C 46 % 1016,6 hPa 0,0 l/m 0,4 km/h S 190 3,2 km/h
03.07.2022 17:25 31,1 C 48 % 1016,6 hPa 0,0 l/m 1,9 km/h S-SO 168 6,4 km/h
03.07.2022 17:20 31,1 C 48 % 1016,7 hPa 0,0 l/m 0,0 km/h SW 216 0,0 km/h
03.07.2022 17:15 31,1 C 47 % 1016,7 hPa 0,0 l/m 0,0 km/h S-SW 205 0,0 km/h
03.07.2022 17:10 31,1 C 48 % 1016,7 hPa 0,0 l/m 0,8 km/h S 183 8,0 km/h
03.07.2022 17:05 31,2 C 46 % 1016,7 hPa 0,0 l/m 0,2 km/h S 177 3,2 km/h
03.07.2022 17:00 30,9 C 50 % 1016,7 hPa 0,0 l/m 1,1 km/h W-NW 302 8,0 km/h
03.07.2022 16:55 30,7 C 48 % 1016,7 hPa 0,0 l/m 0,0 km/h S-SW 205 0,0 km/h
03.07.2022 16:50 30,7 C 49 % 1016,8 hPa 0,0 l/m 0,0 km/h SW 219 0,0 km/h
03.07.2022 16:45 30,9 C 47 % 1016,8 hPa 0,0 l/m 0,0 km/h SW 219 0,0 km/h
03.07.2022 16:40 31,2 C 46 % 1016,9 hPa 0,0 l/m 0,0 km/h S 186 0,0 km/h
03.07.2022 16:35 31,4 C 47 % 1016,8 hPa 0,0 l/m 0,0 km/h S-SO 156 0,0 km/h
03.07.2022 16:30 31,6 C 46 % 1016,9 hPa 0,0 l/m 0,0 km/h S-SW 207 0,0 km/h
03.07.2022 16:25 31,5 C 48 % 1016,8 hPa 0,0 l/m 0,0 km/h S-SO 164 0,0 km/h
03.07.2022 16:20 31,4 C 48 % 1016,8 hPa 0,0 l/m 2,3 km/h S-SW 208 6,4 km/h
03.07.2022 16:15 31,3 C 46 % 1016,8 hPa 0,0 l/m 2,5 km/h S-SW 204 8,0 km/h
03.07.2022 16:10 31,3 C 47 % 1016,9 hPa 0,0 l/m 0,0 km/h S-SW 208 0,0 km/h
03.07.2022 16:05 31,3 C 49 % 1016,8 hPa 0,0 l/m 0,5 km/h S-SW 209 4,8 km/h
03.07.2022 16:00 31,3 C 47 % 1016,9 hPa 0,0 l/m 0,7 km/h S-SW 195 8,0 km/h
03.07.2022 15:55 31,3 C 49 % 1016,9 hPa 0,0 l/m 0,3 km/h S-SW 212 4,8 km/h
03.07.2022 15:50 31,2 C 49 % 1016,8 hPa 0,0 l/m 2,0 km/h S-SW 212 6,4 km/h
03.07.2022 15:45 31,1 C 49 % 1016,9 hPa 0,0 l/m 0,4 km/h S-SW 212 6,4 km/h
03.07.2022 15:40 31,0 C 47 % 1017,0 hPa 0,0 l/m 3,6 km/h S 184 6,4 km/h
03.07.2022 15:35 31,1 C 48 % 1016,9 hPa 0,0 l/m 3,7 km/h S 187 9,7 km/h
_ Min-Zeit 05:45 16:15 17:45 - 00:00 - - 00:00
Minimum _ 14,2 C 46 % 1016,5 hPa - 0,0 km/h - - 0,0 km/h
_ Max-Zeit 16:30 05:00 00:05 00:00 21:50 - - 22:25
Maximum _ 31,6 C 81 % 1021,3 hPa 0,0 l/m 9,7 km/h
N
- - 14,5 km/h
N
Durchschnitt _ 22,8 C 66 % 1018,6 hPa #0,0 l/m 1,9 km/h N - 4,0 km/h